Regional Weather Roundup
Issued by NWS Northern Indiana

Home | Current Version | Previous Version | Text Only | Print | Product List | Glossary Off
Versions: 1 2 3 4 5 6 7 8 9 10 11 12 13 14 15 16 17 18 19 20 21 22 23 24 25 26 27 28 29 30 31 32 33 34 35 36 37 38 39 40 41 42 43 44 45 46 47 48 49 50

504
ASUS43 KIWX 161310
RWRIWX

KIWX WEATHER ROUNDUP
NATIONAL WEATHER SERVICE NORTHERN INDIANA
800 AM EST SAT DEC 16 2017

NOTE: "FAIR" INDICATES FEW OR NO CLOUDS BELOW 12,000 FEET WITH NO
SIGNIFICANT WEATHER AND/OR OBSTRUCTIONS TO VISIBILITY.

* THESE STATIONS ARE NOT UNDER NWS QUALITY CONTROL. THEY ALSO MAY NOT
  REPORT WEATHER SUCH AS PRECIPITATION OR FOG.

INZ001>027-161400-
NORTHERN INDIANA

CITY           SKY/WX    TMP DP  RH WIND       PRES   REMARKS
GARY*          MOCLDY    36  23  60 SW14      29.90R
VALPARAISO     CLOUDY    33  25  72 SW7       29.90R WCI  27
MICHIGAN CITY* CLOUDY    36  27  69 SW12      29.89R
LAPORTE*       PTCLDY    33  26  73 SW10G16   29.90R WCI  25
KNOX*          CLOUDY    34  27  75 SW9       29.91R WCI  26
SOUTH BEND     CLOUDY    34  26  72 SW14      29.89S WCI  25
ELKHART*       CLEAR     34  25  69 SW7       29.90  WCI  28
GOSHEN         CLOUDY    34  25  69 SW14      29.91R WCI  25
MONTICELLO*    CLEAR     32  23  70 SW10      29.93R WCI  24
LOGANSPORT*    CLOUDY    32  25  74 SW13G18   29.94R WCI  22
ROCHESTER*     CLOUDY    36  28  75 SW7       29.93R
WARSAW*        CLOUDY    34  27  75 SW7       29.91R WCI  28
AUBURN*        CLOUDY    34  27  75 SW8       29.92S WCI  27
FORT WAYNE     CLOUDY    34  27  75 SW15      29.94R WCI  24
HUNTINGTON*    CLOUDY    34  24  67 SW9       29.93S WCI  26
PERU/GRISSOM   CLOUDY    32  25  74 SW14      29.92S WCI  22
MARION*        CLOUDY    32  25  76 SW13      29.96S WCI  22

$$
INZ028>050-161400-
CENTRAL INDIANA

CITY           SKY/WX    TMP DP  RH WIND       PRES   REMARKS
LAFAYETTE      CLEAR     32  25  75 SW3       29.96R
KOKOMO*        CLOUDY    33  25  72 SW16      29.94S WCI  23
MUNCIE*        CLOUDY    35  25  66 SW16G24   29.96S WCI  25
INDIANAPOLIS   PTCLDY    31  25  78 S13       30.00S WCI  21

$$
MIZ043>046-050>051-056>058-064>065-071>073-077>080-161400-
SOUTHWEST LOWER MICHIGAN

CITY           SKY/WX    TMP DP  RH WIND       PRES   REMARKS
BATTLE CREEK   CLOUDY    32  24  72 SW6       29.88R WCI  26
BENTON HARBOR  CLOUDY    37  25  61 S7        29.87S
COLDWATER*     CLOUDY    33  25  70 SW9       29.90R WCI  26
HILLSDALE*     CLOUDY    32  23  69 SW8       29.89R WCI  25
HOLLAND        CLOUDY    35  31  85 NE6       29.87R WCI  30
GRAND RAPIDS   LGT SNOW  26  24  92 NE9       29.89R FOG     WCI  17
KALAMAZOO      MOCLDY    33  25  72 S8        29.88R WCI  26
STURGIS*       CLOUDY    33  27  76 SW9       29.89S WCI  26
THREE RIVERS*  MOCLDY    34  25  71 SW9       29.90R WCI  26

$$
OHZ001>008-015>018-024>025-161400-
NORTHWEST OHIO

CITY           SKY/WX    TMP DP  RH WIND       PRES   REMARKS
WAUSEON*       CLOUDY    34  27  75 SW14G20   29.92S WCI  24
DEFIANCE       CLOUDY    33  24  69 SW12      29.94R WCI  24
FINDLAY        CLOUDY    34  25  69 SW14      29.96R WCI  25
TOLEDO EXPRESS CLOUDY    34  26  72 SW13      29.94R WCI  25
TOLEDO METCALF CLOUDY    33  25  72 SW14      29.95R WCI  23
LIMA           MOCLDY    34  26  72 SW16G22   29.96S WCI  24

$$
AND FOR LAKE MICHIGAN COASTAL AND OPEN LAKE BUOY OBSERVATIONS

STATION/POSITION TEMP    WIND        PRES    VSBY  WAVE
                 AIR SEA DIR/SP/G                  HT/PER
                 (F)     (DEG/KT/KT) (MB)    (MI)  (FT/S)
CALUMET HARBOR    35     210/  9/ 13 1011.1R
MICHIGAN CITY     36     190/ 12/ 17   N/A
BURNS HARBOR      36     210/ 11/ 16 1012.2R
SAINT JOSEPH      38     220/ 14/ 18 1011.5

$$
&&




USA.gov is the U.S. government's official web portal to all federal, state and local government web resources and services.